Regional Weather Roundup
Issued by NWS Midland/Odessa, TX

Skip options and go directly to product.
Home | Oldest Version | Next Version | Current Version | All | Text Only | Save Text | Print | Product List | Glossary On

Skip product version selection by date and time.   
804
ASUS44 KMAF 290201
RWRMAF
MIDLAND AREA WEATHER ROUNDUP
NATIONAL WEATHER SERVICE MIDLAND TX
800 PM CST WED JAN 28 2015

...IN SOUTHWEST TEXAS AND SOUTHEAST NEW MEXICO...

CITY           SKY/WX    TMP DP  RH WIND       PRES   REMARKS
ALPINE         PTCLDY    60  44  54 W8        30.21R
ANDREWS        FAIR      64  41  43 SW5       30.08R
ARTESIA        PTCLDY    59  39  47 SE3       30.10R
BIG SPRING     PTCLDY    63  42  46 S6        30.07R
CARLSBAD       CLEAR     56  39  53 W12       30.08R
DRYDEN           N/A     65  41  41 E5        30.06R
FORT STOCKTON  MOCLDY    65  50  58 E7        30.09R
GUAD PASS      PTCLDY    57  32  38 W17       30.21R
HOBBS          MOCLDY    54  36  50 W6        30.11R
MARFA          PTCLDY    57  43  58 CALM      30.21R
MIDLAND AIRPK  PTCLDY    69  44  41 SW5       30.07R
MIDLAND INTL   PTCLDY    57  46  66 CALM      30.07R
ODESSA         PTCLDY    66  43  43 CALM      30.08R
PECOS          MOCLDY    63  45  52 SE5       30.07R
PRESIDIO       FAIR      68  49  51 W6        30.08R
SEMINOLE       PTCLDY    59  39  48 SW6       30.09R
SNYDER         CLEAR    N/A N/A N/A SW6       30.04R
WINK           MOCLDY    63  40  42 W7        30.06R
$$
...OTHER STATIONS IN TEXAS...

CITY           SKY/WX    TMP DP  RH WIND       PRES   REMARKS
ABILENE        CLEAR     63  44  50 S8        30.02R
AMARILLO       MOCLDY    55  32  41 E6        30.09R
AUSTIN         CLEAR     59  42  53 S7        30.08R
BROWNSVILLE    MOCLDY    64  61  90 SE7       30.14R
CORPUS CHRISTI PTCLDY    62  58  86 S10       30.13R
DALLAS FTW     CLEAR     69  42  37 S16       29.99R
DEL RIO        CLEAR     72  40  31 SE10      30.03R
EL PASO        PTCLDY    64  37  36 SW5       30.14R
HOUSTON INT    PTCLDY    64  53  67 S7        30.14S
LUBBOCK        MOCLDY    57  34  41 W7        30.07R
SAN ANGELO     PTCLDY    66  43  43 S10       30.04R
SAN ANTONIO    PTCLDY    68  41  37 S9        30.09R
WACO           CLEAR     65  41  41 S15       30.04S
WICHITA FALLS  NOT AVBL
$$
...OTHER LOCATIONS IN NEW MEXICO...

CITY           SKY/WX    TMP DP  RH WIND       PRES   REMARKS
ALAMAGORDO     PTCLDY    54  32  43 E5        30.17R
ALBUQUERQUE    MOCLDY    53  30  41 NW9       30.22R
CANNON AFB     PTCLDY    58  31  35 W12       30.09R
CLOVIS         PTCLDY    52  32  46 W13       30.09R
HOLLOMAN AFB   NOT AVBL
ROSWELL        MOCLDY    55  40  56 W6        30.10R
RUIDOSO        PTCLDY    48  23  37 W8        30.27R
SANTA FE       CLEAR     42  27  55 N9        30.19S WCI  37
TRUTH OR CONSE PTCLDY    60  35  39 S5        30.16R
TUCUMCARI      PTCLDY    49  36  61 NE10      30.06R
$$

USA.gov is the U.S. government's official web portal to all federal, state and local government web resources and services.